Location: Couloutre
(47.4081°N, 3.2259°E)
Time: 20:09:33
(UTC+00:00)

STARLINK-1042 - Pass Details

Date: 27 February 2020
Orbit: 548 x 551 km, 53.0° (Epoch: 30 March)

Event Time Altitude Azimuth Distance (km) Brightness Sun altitude
Rises 18:56:44 0° 241° (WSW) 2,708 8.1 -15.7°
Reaches altitude 10° 18:58:58 10° 241° (WSW) 1,818 7.1 -16.1°
Maximum altitude 19:03:06 88° 322° (NW) 554 3.5 -16.8°
Enters shadow 19:05:03 31° 61° (ENE) 987 4.5 -17.1°
